SA3PJN-WX Weather Reports


Display with metric or nautical units.
time (UTC)temp
F
wind
direction
speed
MPH
gust
MPH
rain 1hr
in
rain 24hr
in
rain mn
in
humidity
%
barometer
mb
20260904174228 51 302 4.0 6.0 0.00 0.00 0.00 83 952.6
20260904173728 52 301 3.0 6.0 0.00 0.00 0.00 81 952.6
20260904173228 52 312 3.0 5.0 0.00 0.00 0.00 81 952.7
20260904172728 52 309 3.0 6.0 0.00 0.00 0.00 81 952.5
20260904171728 53 323 4.0 8.0 0.00 0.00 0.00 79 952.6
20260904171228 53 308 4.0 7.0 0.00 0.00 0.00 78 952.6
20260904170728 53 300 4.0 7.0 0.00 0.00 0.00 78 952.6
20260904170228 53 309 4.0 7.0 0.00 0.00 0.00 79 952.6
20260904165728 54 312 4.0 8.0 0.00 0.00 0.00 78 952.7
20260904165228 54 315 4.0 8.0 0.00 0.00 0.00 78 952.7
20260904164728 54 336 4.0 7.0 0.00 0.00 0.00 77 952.7
20260904164228 54 294 4.0 7.0 0.00 0.00 0.00 77 952.8
20260904163728 55 297 4.0 8.0 0.00 0.00 0.00 78 952.7
20260904163227 55 310 4.0 9.0 0.00 0.00 0.00 77 952.8
20260904162727 55 344 5.0 9.0 0.00 0.00 0.00 75 952.8
20260904162227 55 349 5.0 9.0 0.00 0.00 0.00 75 952.8
20260904161727 55 326 5.0 9.0 0.00 0.00 0.00 73 952.7
20260904161227 55 350 4.0 9.0 0.00 0.00 0.00 72 952.8
20260904160727 56 26 4.0 9.0 0.00 0.00 0.00 71 952.8
20260904160227 56 294 4.0 9.0 0.00 0.00 0.00 71 952.8
20260904155727 56 328 4.0 9.0 0.00 0.00 0.00 68 952.8
20260904155227 56 24 3.0 7.0 0.00 0.00 0.00 69 952.8
20260904154727 56 334 4.0 7.0 0.00 0.00 0.00 71 952.8
20260904154227 56 23 4.0 8.0 0.00 0.00 0.00 69 952.7
20260904153727 56 336 4.0 9.0 0.00 0.00 0.00 69 952.7
20260904153227 56 287 4.0 9.0 0.00 0.00 0.00 68 952.9
20260904152727 56 324 4.0 7.0 0.00 0.00 0.00 68 952.9
20260904152226 56 305 3.0 7.0 0.00 0.00 0.00 69 953.0
20260904151726 56 335 3.0 7.0 0.00 0.00 0.00 68 953.0
20260904151226 56 282 3.0 6.0 0.00 0.00 0.00 68 952.9
20260904150726 57 326 3.0 8.0 0.00 0.00 0.00 67 953.0
20260904150226 57 19 4.0 8.0 0.00 0.00 0.00 68 953.1
20260904145726 57 284 4.0 10.0 0.00 0.00 0.00 69 953.1
20260904145226 57 70 4.0 10.0 0.00 0.00 0.00 69 953.1
20260904144726 57 315 4.0 10.0 0.00 0.00 0.00 71 953.1
20260904144226 57 353 4.0 10.0 0.00 0.00 0.00 69 953.0
20260904143726 56 309 5.0 11.0 0.00 0.00 0.00 69 953.0
20260904143226 57 46 5.0 11.0 0.00 0.00 0.00 68 953.0
20260904142726 57 315 6.0 14.0 0.00 0.00 0.00 66 953.2
20260904142226 57 288 5.0 15.0 0.00 0.00 0.00 67 953.1
20260904141726 57 36 5.0 15.0 0.00 0.00 0.00 66 953.2
20260904141226 57 296 5.0 9.0 0.00 0.00 0.00 68 953.3
20260904140726 56 318 5.0 9.0 0.00 0.00 0.00 72 953.2
20260904140225 56 319 5.0 11.0 0.00 0.00 0.00 73 953.2
20260904135725 56 6 5.0 11.0 0.00 0.00 0.00 72 953.2
20260904135225 58 329 5.0 11.0 0.00 0.00 0.00 69 953.3
20260904134725 58 351 6.0 11.0 0.00 0.00 0.00 69 953.3
20260904134225 59 14 5.0 11.0 0.00 0.00 0.00 68 953.3
20260904133725 58 274 6.0 11.0 0.00 0.00 0.00 70 953.4
20260904133225 58 300 6.0 10.0 0.00 0.00 0.00 73 953.4
20260904132725 57 298 7.0 12.0 0.00 0.00 0.00 71 953.5
20260904132225 57 288 7.0 13.0 0.00 0.00 0.00 72 953.4
20260904131725 56 273 7.0 13.0 0.00 0.00 0.00 75 953.5
20260904131225 58 293 5.0 11.0 0.00 0.00 0.00 70 953.6
20260904130725 60 0 5.0 11.0 0.00 0.00 0.00 66 953.7
20260904130225 59 78 4.0 11.0 0.00 0.00 0.00 60 953.6
20260904125725 60 6 3.0 10.0 0.00 0.00 0.00 60 953.8
20260904125224 60 71 4.0 11.0 0.00 0.00 0.00 63 953.8
20260904124724 59 68 5.0 11.0 0.00 0.00 0.00 60 953.7
20260904124224 59 32 5.0 11.0 0.00 0.00 0.00 69 953.8
20260904123724 58 69 6.0 11.0 0.00 0.00 0.00 62 953.8
20260904123224 58 51 6.0 11.0 0.00 0.00 0.00 67 953.9
20260904122724 59 326 4.0 11.0 0.00 0.00 0.00 67 954.0
20260904122224 59 57 5.0 11.0 0.00 0.00 0.00 70 954.0
20260904121724 58 58 6.0 12.0 0.00 0.00 0.00 73 954.0
20260904121224 57 66 6.0 12.0 0.00 0.00 0.00 69 954.0
20260904120724 59 74 5.0 11.0 0.00 0.00 0.00 67 954.1
20260904120224 60 24 3.0 8.0 0.00 0.00 0.00 73 954.2
20260904115654 59 358 3.0 8.0 0.00 0.00 0.00 73 954.2
20260904115154 58 359 2.0 6.0 0.00 0.00 0.00 75 954.3
20260904114654 57 31 2.0 5.0 0.00 0.00 0.00 75 954.1
20260904114154 56 311 2.0 5.0 0.00 0.00 0.00 77 954.2
20260904113654 56 336 2.0 6.0 0.00 0.00 0.00 77 954.1
20260904113154 56 64 3.0 7.0 0.00 0.00 0.00 77 954.2
20260904112654 56 312 4.0 9.0 0.00 0.00 0.00 78 954.2
20260904112153 56 307 4.0 9.0 0.00 0.00 0.00 77 954.2
20260904111653 57 306 4.0 9.0 0.00 0.00 0.00 78 954.3
20260904111153 57 349 3.0 9.0 0.00 0.00 0.00 77 954.3
20260904110653 56 290 3.0 8.0 0.00 0.00 0.00 78 954.3
20260904110153 55 260 3.0 8.0 0.00 0.00 0.00 79 954.3
20260904105653 56 74 3.0 8.0 0.00 0.00 0.00 78 954.3
20260904105153 56 346 3.0 8.0 0.00 0.00 0.00 77 954.4
20260904104653 58 1 3.0 8.0 0.00 0.00 0.00 78 954.6
20260904104153 56 359 2.0 7.0 0.00 0.00 0.00 83 954.4
20260904103653 55 338 3.0 8.0 0.00 0.00 0.00 82 954.3
20260904103153 54 63 3.0 8.0 0.00 0.00 0.00 83 954.3
20260904102653 55 19 3.0 7.0 0.00 0.00 0.00 81 954.4
20260904102153 54 345 3.0 7.0 0.00 0.00 0.00 83 954.4
20260904101653 54 20 4.0 8.0 0.00 0.00 0.00 84 954.4
20260904101152 54 5 4.0 8.0 0.00 0.00 0.00 84 954.5
20260904100652 54 278 3.0 8.0 0.00 0.00 0.00 83 954.5
20260904100152 55 12 4.0 9.0 0.00 0.00 0.00 81 954.5
20260904095652 54 297 4.0 9.0 0.00 0.00 0.00 87 954.7
20260904095152 54 17 4.0 11.0 0.00 0.00 0.00 83 954.7
20260904094652 56 295 5.0 11.0 0.00 0.00 0.00 84 954.7
20260904094152 55 352 5.0 11.0 0.00 0.00 0.00 83 954.8
20260904093652 55 287 4.0 9.0 0.00 0.00 0.00 83 954.8
20260904093152 54 268 3.0 9.0 0.00 0.00 0.00 88 954.8
20260904092652 53 325 3.0 8.0 0.00 0.00 0.00 87 954.8
20260904092152 52 339 4.0 11.0 0.00 0.00 0.00 87 954.8
20260904091652 53 339 4.0 11.0 0.00 0.00 0.00 86 954.8
20260904091152 54 296 4.0 9.0 0.00 0.00 0.00 85 954.8
20260904090652 53 323 4.0 8.0 0.00 0.00 0.00 88 954.9
20260904090152 53 274 3.0 8.0 0.00 0.00 0.00 87 954.9
20260904085652 53 359 3.0 8.0 0.00 0.00 0.00 89 954.9
20260904085152 52 270 4.0 8.0 0.00 0.00 0.00 88 955.0
20260904084652 52 322 3.0 8.0 0.00 0.00 0.00 89 954.9
20260904084151 53 334 3.0 7.0 0.00 0.00 0.00 90 954.8
20260904083651 52 326 4.0 9.0 0.00 0.00 0.00 90 954.9
20260904083151 52 322 4.0 9.0 0.00 0.00 0.00 90 954.9
20260904082651 52 264 3.0 8.0 0.00 0.00 0.00 89 954.9
20260904082151 52 315 3.0 6.0 0.00 0.00 0.00 88 954.9
20260904081651 52 236 3.0 7.0 0.00 0.00 0.00 87 954.9
20260904081151 52 256 3.0 7.0 0.00 0.00 0.00 87 954.9
20260904080651 53 221 3.0 7.0 0.00 0.00 0.00 88 954.9
20260904080151 53 323 3.0 6.0 0.00 0.00 0.00 89 955.0
20260904075651 52 250 3.0 6.0 0.00 0.00 0.00 88 954.9
20260904075151 53 258 3.0 8.0 0.00 0.00 0.00 90 955.1
20260904074651 52 293 3.0 8.0 0.00 0.00 0.00 90 955.1
20260904074151 52 246 3.0 8.0 0.00 0.00 0.00 91 955.0
20260904073651 52 317 3.0 7.0 0.00 0.00 0.00 92 955.1
20260904073151 52 265 3.0 6.0 0.00 0.00 0.00 91 955.1
20260904072651 53 253 3.0 6.0 0.00 0.00 0.00 92 955.1
20260904072151 52 275 3.0 6.0 0.00 0.00 0.00 93 955.0
20260904071650 52 288 3.0 8.0 0.00 0.00 0.00 92 954.9
20260904071150 53 279 3.0 9.0 0.00 0.00 0.00 91 955.1
20260904070650 53 227 3.0 9.0 0.00 0.00 0.00 89 955.0
20260904070150 55 232 2.0 9.0 0.00 0.00 0.00 86 955.1
20260904065650 53 88 2.0 6.0 0.00 0.00 0.00 93 955.2
20260904065150 51 250 2.0 6.0 0.00 0.00 0.00 95 955.2
20260904064650 51 228 2.0 6.0 0.00 0.00 0.00 97 955.2
20260904064150 50 338 2.0 7.0 0.00 0.00 0.00 98 955.3
20260904063650 49 234 3.0 7.0 0.00 0.00 0.00 99 955.2
20260904063150 49 275 3.0 7.0 0.00 0.00 0.00 98 955.3
20260904062650 49 335 3.0 7.0 0.00 0.00 0.00 10 955.3
20260904062150 48 281 3.0 7.0 0.00 0.00 0.00 10 955.3
20260904061650 48 278 3.0 7.0 0.00 0.00 0.00 10 955.3
20260904061150 48 285 4.0 8.0 0.00 0.00 0.00 10 955.3
20260904060650 48 312 4.0 8.0 0.00 0.00 0.00 10 955.3
20260904060150 48 261 4.0 8.0 0.00 0.00 0.00 10 955.3
20260904055650 47 288 3.0 6.0 0.00 0.00 0.00 10 955.3
20260904055150 47 276 3.0 6.0 0.00 0.00 0.00 99 955.4
20260904054649 48 331 3.0 6.0 0.00 0.00 0.00 10 955.4
20260904054149 48 269 3.0 6.0 0.00 0.00 0.00 99 955.4
20260904053649 48 275 3.0 5.0 0.00 0.00 0.00 99 955.3
20260904053149 48 309 2.0 5.0 0.00 0.00 0.00 99 955.4
20260904052649 48 359 1.0 6.0 0.00 0.00 0.00 98 955.4
20260904052149 48 193 1.0 6.0 0.00 0.00 0.00 99 955.4
20260904051649 48 238 1.0 5.0 0.00 0.00 0.00 99 955.4
20260904051149 47 243 2.0 6.0 0.00 0.00 0.00 10 955.5
20260904050649 47 236 2.0 6.0 0.00 0.00 0.00 99 955.4
20260904050149 48 231 2.0 6.0 0.00 0.00 0.00 99 955.5
20260904045649 48 225 1.0 6.0 0.00 0.00 0.00 99 955.5
20260904045149 48 256 2.0 6.0 0.00 0.00 0.00 10 955.6
20260904044649 47 149 2.0 6.0 0.00 0.00 0.00 10 955.6
20260904044149 47 232 3.0 8.0 0.00 0.00 0.00 10 955.6
20260904043649 47 104 2.0 8.0 0.00 0.00 0.00 10 955.6
20260904043148 47 217 2.0 7.0 0.00 0.00 0.00 10 955.4
20260904042648 47 283 3.0 7.0 0.00 0.00 0.00 10 955.5
20260904042148 47 235 3.0 7.0 0.00 0.00 0.00 10 955.5
20260904041648 47 242 3.0 7.0 0.00 0.00 0.00 10 955.5
20260904041148 47 243 3.0 7.0 0.00 0.00 0.00 10 955.5
20260904040648 47 242 3.0 9.0 0.00 0.00 0.00 10 955.5
20260904040148 47 224 3.0 9.0 0.00 0.00 0.00 10 955.5
20260904035648 47 46 2.0 9.0 0.00 0.00 0.00 10 955.4
20260904035148 47 189 2.0 8.0 0.00 0.00 0.00 10 955.5
20260904034648 47 218 1.0 7.0 0.00 0.00 0.00 10 955.6
20260904034148 47 208 1.0 7.0 0.00 0.00 0.00 10 955.6
20260904033648 46 87 1.0 5.0 0.00 0.00 0.00 10 955.5
20260904033147 46 98 2.0 7.0 0.00 0.00 0.00 10 955.5
20260904032647 46 109 2.0 8.0 0.00 0.00 0.00 10 955.5
20260904032147 46 268 2.0 8.0 0.00 0.00 0.00 10 955.5
20260904031647 46 62 1.0 8.0 0.00 0.00 0.00 10 955.5
20260904031147 46 161 2.0 9.0 0.00 0.00 0.00 10 955.5
20260904030647 46 118 2.0 9.0 0.00 0.00 0.00 10 955.7
20260904030147 47 72 1.0 6.0 0.00 0.00 0.00 10 955.7
20260904025647 47 98 1.0 6.0 0.00 0.00 0.00 10 955.7
20260904025147 46 204 2.0 6.0 0.00 0.00 0.00 10 955.7
20260904024647 46 110 2.0 5.0 0.00 0.00 0.00 10 955.7
20260904024147 46 176 1.0 4.0 0.00 0.00 0.00 10 955.7
20260904023647 46 57 1.0 4.0 0.00 0.00 0.00 10 955.8
20260904023147 46 46 1.0 5.0 0.00 0.00 0.00 10 955.8
20260904022647 46 50 1.0 5.0 0.00 0.00 0.00 10 955.9
20260904022146 46 34 1.0 4.0 0.00 0.00 0.00 10 955.7
20260904021646 46 96 1.0 4.0 0.00 0.00 0.00 10 955.8
20260904021146 46 278 1.0 5.0 0.00 0.00 0.00 10 955.8
20260904020647 46 340 1.0 5.0 0.00 0.00 0.00 10 955.9
20260904020147 46 54 2.0 6.0 0.00 0.00 0.00 10 955.9
20260904015647 46 74 2.0 6.0 0.00 0.00 0.00 10 955.9
20260904015146 47 273 2.0 6.0 0.00 0.00 0.00 10 956.0
20260904014646 47 80 2.0 6.0 0.00 0.00 0.00 10 956.0
20260904014146 47 89 1.0 7.0 0.00 0.00 0.00 10 956.2
20260904013646 47 25 1.0 7.0 0.00 0.00 0.00 10 956.2
20260904013146 47 199 1.0 5.0 0.00 0.00 0.00 10 956.1
20260904012646 47 59 1.0 5.0 0.00 0.00 0.00 10 956.2
20260904012146 46 101 1.0 5.0 0.00 0.00 0.00 10 956.3
20260904011646 46 63 1.0 5.0 0.00 0.00 0.00 10 956.3
20260904011146 46 62 1.0 5.0 0.00 0.00 0.00 10 956.2
20260904010646 46 184 1.0 5.0 0.00 0.00 0.00 10 956.3
20260904010146 46 77 1.0 8.0 0.00 0.00 0.00 10 956.3
20260904005646 46 8 2.0 8.0 0.00 0.00 0.00 10 956.3
20260904005146 46 195 2.0 7.0 0.00 0.00 0.00 10 956.3
20260904004646 47 181 2.0 7.0 0.00 0.00 0.00 10 956.2
20260904004146 47 35 2.0 7.0 0.00 0.00 0.00 10 956.4
20260904003646 47 121 2.0 8.0 0.00 0.00 0.00 10 956.4
20260904003145 47 136 2.0 8.0 0.00 0.00 0.00 10 956.5
20260904002645 47 136 2.0 5.0 0.00 0.00 0.00 10 956.5
20260904002145 47 140 2.0 7.0 0.00 0.00 0.00 10 956.4
20260904001645 47 31 2.0 7.0 0.00 0.00 0.00 10 956.5
20260904001145 47 52 2.0 11.0 0.00 0.00 0.00 10 956.4
20260904000645 47 103 2.0 11.0 0.00 0.00 0.00 10 956.5
20260904000145 47 54 2.0 8.0 0.00 0.00 0.00 10 956.5
20260903235645 47 86 2.0 7.0 0.00 0.00 0.00 10 956.5
20260903235145 47 108 2.0 7.0 0.00 0.00 0.00 10 956.4
20260903234645 47 125 2.0 7.0 0.00 0.00 0.00 10 956.5
20260903234145 47 72 3.0 11.0 0.00 0.00 0.00 10 956.6
20260903233645 48 148 3.0 11.0 0.00 0.00 0.00 10 956.6
20260903233145 48 182 3.0 9.0 0.00 0.00 0.00 10 956.7
20260903232644 48 226 2.0 8.0 0.00 0.00 0.00 10 956.7
20260903232144 48 185 2.0 8.0 0.00 0.00 0.00 10 956.6
20260903231644 48 27 2.0 8.0 0.00 0.00 0.00 10 956.7
20260903231144 48 53 2.0 8.0 0.00 0.00 0.00 10 956.8
20260903230644 48 95 2.0 8.0 0.00 0.00 0.00 10 956.8
20260903230144 48 189 1.0 5.0 0.00 0.00 0.00 10 956.8
20260903225644 48 148 1.0 4.0 0.00 0.00 0.00 10 956.8
20260903225144 48 95 1.0 4.0 0.00 0.00 0.00 10 957.0
20260903224644 49 154 1.0 4.0 0.00 0.00 0.00 10 956.9
20260903224144 48 158 1.0 4.0 0.00 0.00 0.00 10 957.0
20260903223644 48 157 1.0 5.0 0.00 0.00 0.00 10 957.0
20260903223144 48 126 2.0 6.0 0.00 0.00 0.00 10 956.9
20260903222644 48 154 2.0 6.0 0.00 0.00 0.00 10 956.9
20260903222144 48 107 1.0 6.0 0.00 0.00 0.00 10 956.9
20260903221644 48 79 1.0 6.0 0.00 0.00 0.00 10 956.9
20260903221144 48 56 1.0 7.0 0.00 0.00 0.00 10 957.0
20260903220644 48 119 2.0 9.0 0.00 0.00 0.00 10 957.1
20260903220144 48 83 2.0 9.0 0.00 0.00 0.00 10 957.0
20260903215643 48 85 2.0 8.0 0.00 0.00 0.00 10 957.0
20260903215143 48 99 2.0 8.0 0.00 0.00 0.00 10 956.8
20260903214643 49 205 3.0 9.0 0.00 0.00 0.00 10 956.8
20260903214143 49 152 3.0 9.0 0.00 0.00 0.00 10 956.7
20260903213643 49 210 2.0 9.0 0.00 0.00 0.00 10 957.0
20260903213143 49 220 2.0 9.0 0.00 0.00 0.00 10 956.9
20260903212643 49 220 2.0 8.0 0.00 0.00 0.00 10 956.9
20260903212143 49 95 2.0 8.0 0.00 0.00 0.00 10 956.9
20260903211643 49 70 2.0 9.0 0.00 0.00 0.00 10 956.8
20260903211143 49 131 2.0 9.0 0.00 0.00 0.00 10 956.8
20260903210643 49 87 2.0 7.0 0.00 0.00 0.00 10 956.8
20260903210143 49 48 2.0 6.0 0.00 0.00 0.00 10 956.9
20260903205643 49 122 2.0 6.0 0.00 0.00 0.00 10 957.0
20260903205143 49 81 2.0 6.0 0.00 0.00 0.00 10 956.9
20260903204642 49 110 2.0 8.0 0.00 0.00 0.00 10 956.9
20260903204142 49 137 2.0 9.0 0.00 0.00 0.00 10 957.0
20260903203642 49 92 2.0 9.0 0.00 0.00 0.00 10 956.9
20260903203142 49 69 2.0 8.0 0.00 0.00 0.00 10 957.0
20260903202642 49 164 3.0 8.0 0.00 0.00 0.00 10 957.0
20260903202142 49 120 3.0 9.0 0.00 0.00 0.00 10 956.9
20260903201642 49 57 2.0 11.0 0.00 0.00 0.00 10 956.9
20260903201142 49 153 2.0 11.0 0.00 0.00 0.00 10 957.0
20260903200642 49 55 2.0 8.0 0.00 0.00 0.00 10 956.9
20260903200142 49 143 2.0 7.0 0.00 0.00 0.00 10 957.0
20260903195642 49 104 2.0 7.0 0.00 0.00 0.00 10 957.0
20260903195142 49 144 2.0 8.0 0.00 0.00 0.00 10 956.9
20260903194642 49 57 2.0 9.0 0.00 0.00 0.00 10 957.1
20260903194142 49 89 2.0 9.0 0.00 0.00 0.00 10 957.1
20260903193642 49 85 1.0 9.0 0.00 0.00 0.00 10 957.1
20260903193142 49 125 1.0 5.0 0.00 0.00 0.00 10 957.1
20260903192612 50 71 1.0 7.0 0.00 0.00 0.00 10 957.0
20260903192112 49 108 2.0 8.0 0.00 0.00 0.00 10 957.0
20260903191611 50 162 3.0 9.0 0.00 0.00 0.00 10 957.0
20260903191111 50 9 3.0 9.0 0.00 0.00 0.00 10 957.0
20260903190611 50 237 3.0 9.0 0.00 0.00 0.00 10 957.1
20260903190111 50 130 3.0 9.0 0.00 0.00 0.00 10 957.1
20260903185611 50 215 3.0 9.0 0.00 0.00 0.00 10 957.1
20260903185111 50 139 3.0 9.0 0.00 0.00 0.00 10 957.1
20260903184611 50 79 3.0 11.0 0.00 0.00 0.00 10 957.1
20260903184111 50 100 3.0 11.0 0.00 0.00 0.00 10 957.1
20260903183611 50 164 2.0 11.0 0.00 0.00 0.00 10 957.1
20260903183111 50 37 2.0 11.0 0.00 0.00 0.00 10 957.1
20260903182611 50 128 2.0 8.0 0.00 0.00 0.00 10 956.9
20260903182111 51 178 2.0 8.0 0.00 0.00 0.00 10 957.1
20260903181611 51 91 2.0 7.0 0.00 0.00 0.00 10 957.1
20260903181110 51 86 2.0 7.0 0.00 0.00 0.00 10 957.0
20260903180610 51 119 2.0 10.0 0.00 0.00 0.00 10 957.1
20260903180110 50 132 3.0 10.0 0.00 0.00 0.00 10 957.1
20260903175610 51 103 3.0 10.0 0.00 0.00 0.00 10 957.1
20260903175110 50 204 3.0 9.0 0.00 0.00 0.00 10 957.1
20260903174610 51 112 2.0 7.0 0.00 0.00 0.00 10 957.1